AirNav   Air Wisconsin pilot careers
 
 965 users online  

TS23 MGM Heliport
Austin, Texas, USA

GOING TO AUSTIN?


FAA INFORMATION EFFECTIVE 07 DECEMBER 2017

Location

FAA Identifier: TS23
Lat/Long: 30-20-14.7300N / 097-54-22.0300W
30-20.245500N / 097-54.367167W
30.3374250 / -97.9061194
(estimated)
Elevation: 540 ft. / 165 m (estimated)
Variation: 06E (2000)
From city: 15 miles NW of AUSTIN, TX
Time zone: UTC -6 (UTC -5 during Daylight Saving Time)
Zip code: 78732

Heliport Operations

Heliport use: Private use. Permission required prior to landing
Activation date: 02/2002
Control tower: no
ARTCC: HOUSTON CENTER
FSS: SAN ANGELO FLIGHT SERVICE STATION
Attendance: UNATNDD
Wind indicator: yes
Segmented circle: no

Heliport Communications

WX ASOS at RYW (10 nm N): 119.375 (512-267-1365)
WX ASOS at AUS (15 nm SE): PHONE 512-369-7881
WX AWOS-3 at EDC (18 nm E): 118.825 (512-616-2967)

Nearby radio navigation aids

VOR radial/distance  VOR name  Freq  Var
CWKr257/19.6CENTEX VORTAC112.8006E

Heliport Services

Runway Information

Helipad H1

Dimensions: 100 x 100 ft. / 30 x 30 m
Surface: concrete
Traffic pattern: leftleft

Heliport Ownership and Management from official FAA records

Ownership: Privately-owned
Owner: MGM HOLDINGS INC
12021 SELMA HUGHES PARK ROAD
AUSTIN, TX 78759
Phone 512-266-1011
Manager: MICHAEL MCCARTHY
12021 SELMA HUGHES PARK ROAD
AUSTIN, TX 78759
Phone 512-266-1011

Heliport Operational Statistics

Aircraft based on the field: 1
Helicopters: 1
    

Additional Remarks

A52-H1 40 FT TREES 50 FT SOUTH & 40 FT PLINE 150 FT WEST OF HELIPAD.

Instrument Procedures

There are no published instrument procedures at TS23.

Some nearby airports with instrument procedures:

3R9 - Lakeway Airpark (5 nm W)
KRYW - Lago Vista TX - Rusty Allen Airport (10 nm N)
KAUS - Austin-Bergstrom International Airport (15 nm SE)
KEDC - Austin Executive Airport (18 nm E)
KGTU - Georgetown Municipal Airport (24 nm NE)
 
Loc | Ops | Rwys | IFR | FBO | Links
Com | Nav | Svcs | Stats | Notes


 
Area around TS23 (MGM Heliport)
 
Road maps at: MapQuest Bing Google
 
Aerial photo
No photo
 
Sectional chart

 
Airport distance calculator
Flying to MGM Heliport? Find the distance to fly.

From to TS23

Sunrise and sunset
Times for 17-Dec-2017
 Local
(UTC-6)
 Zulu
(UTC)
Morning civil twilight06:5712:57
Sunrise07:2313:23
Sunset17:3323:33
Evening civil twilight17:5923:59

Current date and time
Zulu (UTC)  17-Dec-2017 19:27:19
Local (UTC-6)  17-Dec-2017 13:27:19
 
METAR
KRYW 
10nm N 
171855Z AUTO 23004KT 10SM SCT005 12/11 A3006 RMK AO2 T01240112
KATT 
11nm E 
171851Z AUTO 00000KT 10SM OVC008 12/09 A3008 RMK AO2 SLP188 T01220094 $
KAUS 
11nm E 
171853Z VRB03KT 7SM OVC009 11/09 A3007 RMK AO2 SLP184 T01110089 $
KEDC 
18nm E 
171855Z AUTO 23004KT 8SM BKN008 11/10 A3007 RMK AO2
TAF
KAUS 
11nm E 
171720Z 1718/1824 17005KT 5SM BR BKN007 FM172100 17005KT P6SM BKN150 FM180000 13005KT 4SM BR OVC006 FM180300 04003KT 1SM -DZ BR OVC003 FM181800 04004KT 3SM BR OVC004
NOTAMs
Click for the latest NOTAMs
NOTAMs are issued by the DoD/FAA and will open in a separate window not controlled by AirNav.

 

 
 

Would you like to see your business listed on this page?

 If your business provides an interesting product or service to pilots, flight crews, aircraft, or users of the MGM Heliport, you should consider listing it here.  To start the listing process, click on the button below
 
Add a business
 

Other Pages about MGM Heliport

Update a link
 
Copyright © AirNav, LLC. All rights reserved. Privacy Policy  Contact